{"data":{"norad_id":61050,"epoch":"2026-09-21T21:16:49.555488Z","epoch_age_seconds":72269,"freshness":"FRESH","line1":"1 61050U 24164A   26264.88668467  .00000595  00000+0  97739-5 0  9990","line2":"2 61050  53.1609  64.1135 0001291 120.6686 239.4459 15.69704996116235","mean_motion":15.69704996,"eccentricity":0.0001291,"inclination_deg":53.1609,"raan_deg":64.1135,"arg_perigee_deg":120.6686,"mean_anomaly_deg":239.4459,"bstar":9.7739e-6,"rev_number":11623,"period_min":91.736982660403,"perigee_km":358.87120993156,"apogee_km":360.61093004923,"semimajor_km":6737.8780699904,"source":"CELESTRAK","updated_at":"2026-09-22T09:00:49.330097Z"}}